DW6197 Weather Reports


time (UTC)temp
C
wind
direction
speed
KPH
gust
KPH
rain 1hr
cm
rain 24hr
cm
rain mn
cm
humidity
%
barometer
mb
20260906093004 19 342 0.0 0.0 0.00 0.05 0.00 98 998.4
20260906091506 19 342 0.0 0.0 0.00 0.05 0.00 98 998.4
20260906090003 19 342 0.0 0.0 0.00 0.05 0.00 98 998.3
20260906084503 19 342 0.0 0.0 0.00 0.05 0.00 98 998.4
20260906083006 19 342 0.0 0.0 0.00 0.05 0.00 98 998.4
20260906081502 19 342 0.0 6.4 0.00 0.05 0.00 98 998.4
20260906080001 20 140 0.0 3.2 0.00 0.05 0.00 98 998.4
20260906074501 20 140 0.0 0.0 0.00 0.05 0.00 98 998.1
20260906073100 20 140 0.0 0.0 0.00 0.05 0.00 98 998.0
20260906071602 20 140 0.0 0.0 0.00 0.05 0.00 98 998.3
20260906070057 20 140 0.0 0.0 0.00 0.05 0.00 98 998.4
20260906064557 20 140 0.0 1.6 0.00 0.05 0.00 98 998.3
20260906063058 20 140 0.0 1.6 0.00 0.05 0.00 98 998.2
20260906061558 20 140 0.0 0.0 0.00 0.05 0.00 98 998.3
20260906060054 20 140 0.0 0.0 0.00 0.05 0.00 98 998.5
20260906054551 20 140 0.0 0.0 0.00 0.05 0.00 98 998.8
20260906053053 20 140 0.0 0.0 0.00 0.05 0.00 98 999.3
20260906051553 20 140 0.0 1.6 0.00 0.05 0.00 98 999.4
20260906050047 20 140 0.0 0.0 0.00 0.05 0.00 98 999.4
20260906044546 20 140 0.0 0.0 0.00 0.05 0.00 98 999.3
20260906043045 19 140 0.0 3.2 0.00 0.05 0.00 98 999.3
20260906041544 19 140 0.0 0.0 0.00 0.05 0.00 97 999.2
20260906040042 20 140 0.0 0.0 0.00 0.05 0.00 98 999.2
20260906034546 20 140 0.0 0.0 0.00 0.05 0.05 97 999.5
20260906033041 20 140 0.0 0.0 0.00 0.05 0.05 97 999.6
20260906031539 20 140 0.0 0.0 0.00 0.05 0.05 97 999.3
20260906030041 20 140 0.0 0.0 0.00 0.05 0.05 97 999.5
20260906024546 20 140 0.0 3.2 0.00 0.05 0.05 97 999.6
20260906023038 20 140 0.0 0.0 0.00 0.05 0.05 97 999.2
20260906021537 20 140 0.0 0.0 0.00 0.05 0.05 97 999.2
20260906020045 20 140 0.0 0.0 0.00 0.05 0.05 97 999.0
20260906014549 20 140 0.0 0.0 0.00 0.05 0.05 97 998.6
20260906013036 20 140 0.0 0.0 0.00 0.05 0.05 96 998.9
20260906011540 20 140 0.0 0.0 0.00 0.05 0.05 96 998.8
20260906010034 20 140 0.0 0.0 0.00 0.05 0.05 96 998.5
20260906004540 21 140 0.0 0.0 0.00 0.05 0.05 95 998.3
20260906003046 21 140 0.0 0.0 0.00 0.05 0.05 94 998.1
20260906001535 21 140 0.0 0.0 0.00 0.05 0.05 94 998.2
20260906000033 22 140 0.0 0.0 0.00 0.05 0.05 93 998.2
20260905234532 22 140 0.0 0.0 0.00 0.05 0.05 93 998.0
20260905233032 22 140 0.0 0.0 0.00 0.05 0.05 92 998.0
20260905231536 23 140 0.0 0.0 0.00 0.05 0.05 91 998.0
20260905230031 23 140 0.0 0.0 0.00 0.05 0.05 91 997.8
20260905224533 23 140 0.0 0.0 0.00 0.05 0.05 92 997.7
20260905223029 23 140 0.0 0.0 0.00 0.05 0.05 91 997.6
20260905221528 23 140 0.0 0.0 0.00 0.05 0.05 92 997.9
20260905220027 23 140 0.0 0.0 0.00 0.05 0.05 92 997.9
20260905214530 22 140 0.0 0.0 0.00 0.05 0.05 94 998.0
20260905213037 22 140 1.6 4.8 0.00 0.05 0.05 93 998.2
20260905211528 22 140 0.0 0.0 0.03 0.05 0.05 94 998.3
20260905210026 22 139 0.0 3.2 0.03 0.05 0.05 92 998.3
20260905204528 22 139 0.0 3.2 0.03 0.05 0.05 90 998.5
20260905203025 23 139 0.0 3.2 0.03 0.05 0.05 88 998.3
20260905201524 24 139 0.0 3.2 0.00 0.03 0.03 81 998.9
20260905200024 24 48 1.6 9.7 0.00 0.03 0.03 80 998.6
20260905194523 24 217 3.2 8.0 0.00 0.10 0.03 80 998.3
20260905193023 25 138 0.0 4.8 0.00 0.10 0.03 78 998.9
20260905191522 26 360 0.0 6.4 0.00 0.10 0.03 76 998.3
20260905190024 27 64 6.4 17.7 0.00 0.10 0.03 66 998.4
20260905184521 29 16 3.2 17.7 0.00 0.10 0.03 62 998.1
20260905183021 31 67 3.2 12.9 0.00 0.10 0.03 61 997.9
20260905181523 31 69 0.0 3.2 0.00 0.10 0.03 59 997.8
20260905180014 31 114 1.6 9.7 0.00 0.10 0.03 64 998.3
20260905174512 30 225 3.2 6.4 0.00 0.10 0.03 63 998.8
20260905173008 31 172 0.0 3.2 0.00 0.10 0.03 62 999.0
20260905171513 30 22 3.2 8.0 0.00 0.10 0.03 61 999.1
20260905170003 30 327 0.0 6.4 0.00 0.10 0.03 63 999.1
20260905164559 29 182 0.0 9.7 0.00 0.10 0.03 67 999.4
20260905163054 28 321 1.6 8.0 0.00 0.10 0.03 72 999.9
20260905161550 28 295 0.0 4.8 0.00 0.10 0.03 74 999.9
20260905160049 27 304 1.6 6.4 0.00 0.10 0.03 82 999.9
20260905154542 26 211 0.0 4.8 0.00 0.10 0.03 84 1000.1
20260905153039 25 238 0.0 6.4 0.00 0.10 0.03 86 1000.3
20260905151533 24 16 0.0 4.8 0.00 0.10 0.03 90 1000.5
20260905150028 23 302 0.0 6.4 0.00 0.10 0.03 95 1000.8
20260905144625 22 327 0.0 6.4 0.00 0.10 0.03 98 1000.8
20260905143025 21 59 1.6 8.0 0.00 0.10 0.03 99 1000.8
20260905141519 21 62 0.0 6.4 0.00 0.10 0.03 99 1000.9
20260905140015 21 343 0.0 4.8 0.00 0.10 0.03 99 1001.2
20260905134514 20 71 0.0 3.2 0.00 0.10 0.03 99 1001.4
20260905133011 20 71 1.6 4.8 0.00 0.10 0.03 99 1001.4
20260905131519 20 28 0.0 3.2 0.00 0.10 0.03 99 1001.5
20260905130008 20 341 0.0 0.0 0.00 0.10 0.03 99 1001.4
20260905124508 20 341 0.0 1.6 0.00 0.10 0.03 99 1001.3
20260905123005 20 341 0.0 4.8 0.00 0.10 0.03 99 1001.3
20260905121503 20 338 0.0 1.6 0.00 0.10 0.03 99 1001.3
20260905120000 20 338 0.0 3.2 0.03 0.10 0.03 99 1001.2
20260905114600 20 339 0.0 0.0 0.03 0.13 0.03 99 1000.8
20260905113057 20 339 0.0 1.6 0.03 0.13 0.03 99 1000.7
20260905111642 20 339 0.0 0.0 0.03 0.13 0.03 99 1000.5
20260905110056 20 339 0.0 0.0 0.00 0.10 0.00 99 1000.3
20260905104555 20 339 0.0 0.0 0.00 0.10 0.00 99 1000.1
20260905103055 20 339 0.0 0.0 0.00 0.10 0.00 99 1000.0
20260905101554 20 339 0.0 0.0 0.00 0.10 0.00 98 1000.0
20260905100107 20 339 0.0 0.0 0.00 0.10 0.00 98 999.9
20260905094553 20 339 0.0 0.0 0.00 0.10 0.00 98 999.8